Wind_Speed
26 25 24 23 22 20 19 16 15 15 16 16 18 19 20 20 21 21 21 22 23 24 26 27 28 29 30 30 31 30 33 35
25 24 24 23 23 20 18 17 18 18 19 20 21 22 22 22 22 23 24 23 24 25 25 26 26 27 29 29 29 29 33 33
25 25 24 25 24 23 20 19 18 19 22 23 23 23 23 24 25 25 23 23 24 24 26 27 29 31 33 34 35 35 36 34
23 24 25 24 24 23 22 22 22 25 25 25 25 25 26 27 27 27 27 29 30 31 32 34 35 36 37 39 40 40 41 39
21 21 21 21 22 22 22 22 24 25 27 28 28 29 30 32 33 33 34 36 37 38 38 38 39 41 43 44 45 44 46 47
22 22 22 21 21 22 23 24 26 28 30 31 31 33 35 35 35 37 39 41 42 43 45 46 48 48 48 48 50 51 50 53
24 24 23 22 23 25 26 27 29 30 32 34 36 37 39 41 42 43 45 46 47 49 52 55 56 56 55 55 55 52 53 53
27 26 25 25 25 28 30 30 32 34 35 38 41 44 45 47 47 48 50 52 54 56 58 61 62 63 61 61 59 56 54 55
29 28 28 29 29 31 31 32 33 36 39 41 44 47 49 51 52 54 55 57 58 61 63 65 66 66 66 64 60 56 56 55
32 32 32 32 32 32 33 35 39 43 45 47 49 52 54 55 56 57 59 61 64 67 69 70 70 68 64 63 59 58 57 57
34 33 33 33 33 33 36 40 43 46 48 51 54 55 57 57 57 60 63 66 70 71 72 72 69 64 63 61 60 59 58 57
34 33 34 34 34 38 41 43 45 49 53 54 57 58 58 58 61 65 68 69 68 68 66 64 62 59 56 56 57 58 57 56
36 36 36 36 39 42 44 48 51 54 57 61 62 59 59 63 67 69 68 67 64 60 59 61 65 63 61 58 58 58 57 56
37 39 39 42 43 46 49 52 55 58 62 62 61 62 64 66 67 65 64 61 58 62 60 59 61 62 61 61 59 53 53 52
40 42 45 46 47 49 52 55 58 60 61 61 63 65 66 67 65 63 60 59 58 60 62 64 64 65 65 64 61 58 51 48
42 45 48 49 51 53 55 58 59 59 60 62 63 65 65 63 62 59 58 59 60 64 65 66 65 63 58 58 58 56 52 47
45 50 51 52 54 55 56 57 57 60 60 60 62 61 63 63 60 61 61 61 63 65 66 64 60 58 55 54 52 52 53 52
48 49 51 53 54 54 56 57 58 57 58 60 61 62 62 60 60 61 61 64 66 66 63 60 57 54 52 53 54 54 55 56
46 50 52 53 52 53 56 56 56 57 60 60 62 62 61 60 60 62 63 65 66 63 60 56 55 55 56 57 59 61 62 63
50 53 53 51 51 54 55 55 56 58 58 60 61 61 60 59 61 62 64 63 60 58 56 58 61 63 65 66 67 68 68 68
Wind_Direction
302 302 303 307 312 313 313 314 316 317 318 321 321 318 317 316 316 313 311 312 312 309 307 307 307 308 308 307 306 300 299 304
297 297 297 301 308 312 315 314 314 317 321 323 322 322 318 319 318 319 318 319 315 313 312 311 311 310 308 308 304 303 305 306
298 296 293 296 304 310 311 309 308 315 318 317 316 316 315 314 315 315 314 310 308 307 305 307 309 310 311 310 310 306 302 301
303 299 297 298 301 306 305 309 312 313 314 314 312 312 312 309 308 306 307 305 304 302 303 303 301 302 303 302 302 302 303 302
305 307 305 305 310 311 311 312 314 313 312 310 311 314 313 310 307 306 306 302 303 302 300 298 298 297 298 298 297 295 296 297
303 305 304 306 307 308 308 309 308 309 309 308 307 305 302 301 300 300 299 300 300 300 300 300 299 299 297 294 293 292 291 292
299 298 297 299 302 303 304 304 305 306 306 304 303 303 303 303 303 302 302 301 300 298 298 298 299 299 297 295 295 292 289 286
292 291 291 293 297 301 302 305 308 308 308 307 307 305 304 302 302 300 299 299 299 298 298 298 298 297 297 296 295 291 286 283
288 287 289 292 296 299 302 306 307 309 308 307 305 304 303 302 300 299 299 299 298 297 297 296 296 295 295 295 293 290 286 282
283 286 288 291 295 298 300 305 308 307 306 305 304 303 301 299 299 299 299 298 297 296 296 298 298 298 298 296 293 289 285 282
281 284 287 291 293 296 301 305 307 306 305 302 301 301 299 298 297 298 298 298 299 300 301 301 301 300 298 295 291 287 284 281
282 283 287 289 292 297 302 305 304 305 305 303 302 300 300 299 299 299 299 302 304 304 304 302 300 296 294 292 289 286 283 276
282 284 285 287 292 299 302 304 305 305 306 305 303 301 300 300 301 302 305 306 306 303 300 299 299 297 295 290 288 284 280 274
281 282 283 287 295 298 302 304 304 304 304 301 300 299 299 301 304 306 305 305 301 301 300 298 295 294 291 288 284 282 281 278
280 281 282 288 294 298 300 301 302 302 300 298 298 297 301 304 305 304 302 300 300 298 297 296 295 293 291 288 285 282 274 270
279 281 284 290 295 298 299 299 299 299 298 298 299 301 304 304 303 300 300 301 300 299 299 298 295 293 291 290 288 284 278 269
282 286 290 293 296 297 297 297 297 297 298 300 302 305 306 304 302 302 300 299 300 300 301 299 298 294 292 288 284 283 283 280
286 289 292 295 296 295 295 296 297 298 300 303 305 304 303 302 300 300 300 301 303 304 302 300 298 295 292 288 285 283 281 280
289 293 298 298 294 293 295 296 297 298 301 302 302 301 300 301 300 300 302 305 305 304 303 300 298 296 293 290 287 286 284 282
296 299 299 296 296 296 296 296 297 299 300 300 299 299 300 301 301 303 305 305 305 303 301 301 299 297 294 292 289 287 285 283
Height
5851 5850 5849 5847 5846 5845 5844 5843 5842 5841 5841 5839 5838 5836 5835 5834 5833 5831 5830 5828 5827 5826 5824 5823 5822 5821 5819 5816 5814 5812 5808 5806
5846 5846 5845 5845 5843 5842 5841 5839 5838 5837 5836 5835 5833 5832 5831 5830 5828 5827 5825 5824 5823 5821 5819 5818 5817 5816 5813 5811 5808 5806 5804 5801
5843 5842 5841 5840 5839 5839 5838 5836 5835 5833 5831 5830 5828 5827 5826 5824 5823 5821 5820 5818 5817 5816 5814 5813 5812 5810 5807 5804 5801 5799 5797 5796
5840 5839 5838 5837 5836 5835 5834 5833 5831 5829 5827 5826 5824 5823 5821 5819 5817 5815 5815 5812 5811 5809 5808 5807 5806 5804 5802 5798 5795 5793 5790 5789
5836 5835 5833 5832 5831 5830 5829 5827 5827 5825 5823 5821 5820 5817 5815 5813 5811 5809 5807 5804 5803 5802 5800 5799 5798 5796 5794 5791 5788 5787 5783 5779
5830 5829 5827 5827 5826 5825 5824 5823 5821 5819 5817 5815 5813 5811 5809 5807 5804 5802 5799 5797 5795 5792 5790 5788 5787 5786 5784 5781 5778 5775 5775 5770
5825 5824 5823 5822 5820 5819 5818 5816 5815 5813 5811 5808 5807 5804 5801 5798 5796 5793 5790 5787 5785 5782 5779 5776 5773 5772 5771 5769 5766 5764 5761 5760
5820 5819 5818 5816 5815 5813 5812 5811 5808 5807 5804 5801 5798 5795 5792 5790 5787 5784 5781 5779 5776 5772 5769 5766 5763 5760 5756 5754 5753 5750 5747 5744
5815 5813 5812 5811 5809 5807 5805 5803 5801 5799 5796 5794 5791 5787 5783 5780 5777 5773 5770 5767 5764 5760 5757 5754 5751 5748 5745 5742 5737 5735 5733 5731
5809 5808 5806 5804 5802 5800 5798 5796 5793 5790 5787 5784 5780 5776 5773 5770 5766 5762 5758 5755 5751 5747 5743 5739 5736 5733 5730 5728 5724 5721 5718 5716
5801 5799 5798 5797 5795 5793 5790 5788 5785 5782 5778 5774 5771 5766 5762 5758 5755 5750 5745 5741 5736 5731 5726 5723 5720 5716 5713 5710 5707 5705 5703 5701
5793 5791 5790 5788 5786 5784 5781 5778 5775 5772 5768 5763 5758 5754 5749 5745 5740 5735 5729 5725 5719 5714 5711 5705 5702 5700 5697 5693 5688 5685 5687 5684
5785 5784 5782 5780 5777 5774 5771 5768 5764 5759 5756 5751 5746 5741 5735 5730 5725 5720 5715 5711 5705 5700 5697 5692 5686 5683 5681 5678 5671 5667 5668 5666
5777 5775 5773 5770 5767 5763 5760 5756 5752 5747 5743 5738 5734 5728 5723 5718 5712 5707 5702 5698 5692 5686 5681 5676 5670 5664 5661 5658 5658 5654 5648 5647
5768 5765 5763 5761 5756 5752 5748 5743 5739 5734 5729 5725 5720 5714 5709 5703 5699 5693 5688 5684 5677 5671 5665 5659 5654 5646 5640 5637 5636 5636 5637 5635
5759 5755 5752 5749 5745 5740 5736 5731 5726 5720 5716 5710 5705 5701 5696 5690 5684 5678 5674 5669 5663 5655 5649 5643 5637 5631 5626 5620 5615 5613 5614 5621
5748 5745 5741 5737 5733 5728 5723 5718 5713 5708 5702 5697 5691 5687 5683 5677 5670 5664 5659 5653 5647 5640 5633 5625 5620 5616 5611 5607 5602 5598 5595 5596
5737 5734 5729 5724 5720 5715 5711 5706 5701 5695 5690 5685 5679 5673 5668 5663 5656 5649 5644 5637 5630 5623 5616 5610 5604 5599 5595 5591 5587 5583 5579 5577
5726 5723 5717 5712 5707 5703 5698 5693 5688 5683 5677 5672 5666 5660 5655 5648 5642 5635 5628 5622 5615 5607 5600 5595 5589 5584 5579 5574 5570 5565 5561 5556
5712 5709 5704 5699 5695 5690 5684 5680 5675 5670 5664 5659 5653 5647 5642 5635 5628 5621 5614 5607 5600 5593 5586 5579 5573 5567 5561 5556 5551 5545 5541 5538